When you browse on this site, cookies collect data to enhance your experience and personalize the content and advertising you see.
Visit our Privacy Policy to learn more. By continuing to use the site, you agree to this use of cookies and data.
  • Em Portugal
  • Lista de países
  • Para 7 dias
  • Temperatura da água
  • Mapa do tempo
  • Widgets de tempo
  • user-avatar
    Iniciar Sessão

    Previsão horária em Akhaltsikhe

    Hoje, 27 Maio, Quarta-feira

    Tempo Temperatura Precipitação Vento Pressão Humidade
    00:00 +11°C° 0 mm 1 m/s 651 mmHg 83%
    01:00 +11°C° 0 mm 1 m/s 651 mmHg 82%
    02:00 +11°C° 0 mm 1 m/s 651 mmHg 82%
    03:00 +10°C° 0 mm 2 m/s 651 mmHg 80%
    04:00 +10°C° 0 mm 2 m/s 651 mmHg 79%
    05:00 +12°C° 0 mm 1 m/s 652 mmHg 78%
    06:00 +12°C° 0 mm 1 m/s 652 mmHg 78%
    07:00 +15°C° 0 mm 1 m/s 653 mmHg 71%
    08:00 +18°C° 0 mm 1 m/s 653 mmHg 64%
    09:00 +21°C° 0 mm 1 m/s 654 mmHg 57%
    10:00 +21°C° 0 mm 2 m/s 654 mmHg 52%
    11:00 +24°C° 0 mm 2 m/s 655 mmHg 48%
    12:00 +26°C° 0 mm 2 m/s 655 mmHg 43%
    13:00 +26°C° 0 mm 2 m/s 655 mmHg 43%
    14:00 +26°C° 0 mm 3 m/s 655 mmHg 42%
    15:00 +27°C° 0 mm 3 m/s 654 mmHg 41%
    16:00 +25°C° 0.1 mm 2 m/s 654 mmHg 49%
    17:00 +24°C° 0.1 mm 2 m/s 653 mmHg 57%
    18:00 +23°C° 0.1 mm 1 m/s 653 mmHg 65%
    19:00 +20°C° 0 mm 2 m/s 652 mmHg 67%
    20:00 +18°C° 0 mm 2 m/s 652 mmHg 70%
    21:00 +16°C° 0 mm 2 m/s 652 mmHg 72%
    22:00 +15°C° 0 mm 2 m/s 651 mmHg 73%
    23:00 +15°C° 0 mm 2 m/s 651 mmHg 74%

    Amanhã, 28 Maio, Quinta-feira

    Tempo Temperatura Precipitação Vento Pressão Humidade
    00:00 +14°C° 0 mm 2 m/s 651 mmHg 74%
    01:00 +14°C° 0 mm 2 m/s 650 mmHg 74%
    02:00 +14°C° 0 mm 2 m/s 650 mmHg 74%
    03:00 +13°C° 0 mm 2 m/s 650 mmHg 74%
    04:00 +14°C° 0 mm 1 m/s 650 mmHg 73%
    05:00 +14°C° 0 mm 1 m/s 650 mmHg 72%
    06:00 +15°C° 0 mm 1 m/s 650 mmHg 72%
    07:00 +18°C° 0 mm 1 m/s 651 mmHg 63%
    08:00 +21°C° 0 mm 1 m/s 651 mmHg 54%
    09:00 +24°C° 0 mm 1 m/s 652 mmHg 45%
    10:00 +25°C° 0 mm 1 m/s 652 mmHg 41%
    11:00 +26°C° 0 mm 1 m/s 652 mmHg 37%
    12:00 +28°C° 0 mm 1 m/s 652 mmHg 33%
    13:00 +28°C° 0 mm 1 m/s 652 mmHg 33%
    14:00 +28°C° 0 mm 1 m/s 652 mmHg 32%
    15:00 +29°C° 0 mm 1 m/s 652 mmHg 31%
    16:00 +27°C° 0 mm 1 m/s 652 mmHg 40%
    17:00 +26°C° 0 mm 1 m/s 651 mmHg 50%
    18:00 +24°C° 0 mm 1 m/s 651 mmHg 59%
    19:00 +22°C° 1 mm 1 m/s 651 mmHg 69%
    20:00 +19°C° 1 mm 1 m/s 650 mmHg 79%
    21:00 +15°C° 1 mm 1 m/s 650 mmHg 89%
    22:00 +15°C° 0.4 mm 1 m/s 649 mmHg 89%
    23:00 +14°C° 0.4 mm 1 m/s 649 mmHg 90%

    Depois de amanhã, 29 Maio, Sexta-feira

    Tempo Temperatura Precipitação Vento Pressão Humidade
    00:00 +13°C° 0.4 mm 0 m/s 649 mmHg 90%
    01:00 +14°C° 0 mm 1 m/s 649 mmHg 88%
    02:00 +14°C° 0 mm 1 m/s 648 mmHg 86%
    03:00 +14°C° 0 mm 1 m/s 648 mmHg 85%
    04:00 +14°C° 0 mm 1 m/s 648 mmHg 83%
    05:00 +15°C° 0 mm 1 m/s 648 mmHg 82%
    06:00 +16°C° 0 mm 1 m/s 648 mmHg 80%
    07:00 +19°C° 0 mm 1 m/s 648 mmHg 71%
    08:00 +22°C° 0 mm 1 m/s 648 mmHg 62%
    09:00 +24°C° 0 mm 2 m/s 648 mmHg 53%
    10:00 +26°C° 0 mm 2 m/s 649 mmHg 48%
    11:00 +27°C° 0 mm 3 m/s 649 mmHg 43%
    12:00 +28°C° 0 mm 4 m/s 649 mmHg 39%
    13:00 +27°C° 0.3 mm 4 m/s 648 mmHg 45%
    14:00 +26°C° 0.3 mm 4 m/s 648 mmHg 51%
    15:00 +25°C° 0.3 mm 4 m/s 647 mmHg 57%
    16:00 +21°C° 0.9 mm 3 m/s 647 mmHg 69%
    17:00 +18°C° 0.9 mm 3 m/s 646 mmHg 80%
    18:00 +16°C° 0.9 mm 2 m/s 646 mmHg 91%
    19:00 +15°C° 0.1 mm 2 m/s 646 mmHg 93%
    20:00 +14°C° 0.1 mm 2 m/s 647 mmHg 95%
    21:00 +13°C° 0.1 mm 2 m/s 647 mmHg 97%
    22:00 +13°C° 0.1 mm 1 m/s 647 mmHg 97%
    23:00 +12°C° 0.1 mm 1 m/s 647 mmHg 97%

    30 Maio, Sábado

    Tempo Temperatura Precipitação Vento Pressão Humidade
    00:00 +12°C° 0.1 mm 1 m/s 647 mmHg 97%
    01:00 +12°C° 0.1 mm 1 m/s 647 mmHg 97%
    02:00 +11°C° 0.1 mm 1 m/s 647 mmHg 97%
    03:00 +11°C° 0.1 mm 1 m/s 647 mmHg 97%
    04:00 +11°C° 0.2 mm 1 m/s 647 mmHg 96%
    05:00 +11°C° 0.2 mm 1 m/s 648 mmHg 96%
    06:00 +11°C° 0.2 mm 1 m/s 648 mmHg 95%
    07:00 +12°C° 0.2 mm 1 m/s 649 mmHg 92%
    08:00 +13°C° 0.2 mm 1 m/s 649 mmHg 88%
    09:00 +14°C° 0.2 mm 1 m/s 649 mmHg 85%
    10:00 +14°C° 0.3 mm 1 m/s 649 mmHg 81%
    11:00 +15°C° 0.3 mm 2 m/s 650 mmHg 77%
    12:00 +16°C° 0.3 mm 2 m/s 650 mmHg 73%
    13:00 +16°C° 0.4 mm 2 m/s 650 mmHg 73%
    14:00 +16°C° 0.4 mm 2 m/s 650 mmHg 74%
    15:00 +16°C° 0.4 mm 2 m/s 650 mmHg 74%
    16:00 +15°C° 0.4 mm 2 m/s 650 mmHg 77%
    17:00 +15°C° 0.4 mm 2 m/s 649 mmHg 81%
    18:00 +14°C° 0.4 mm 2 m/s 649 mmHg 85%
    19:00 +13°C° 0.1 mm 2 m/s 649 mmHg 88%
    20:00 +12°C° 0.1 mm 1 m/s 649 mmHg 92%
    21:00 +10°C° 0.1 mm 1 m/s 649 mmHg 95%
    22:00 +10°C° 0.1 mm 1 m/s 649 mmHg 94%
    23:00 +9°C° 0.1 mm 0 m/s 649 mmHg 93%

    31 Maio, Domingo

    Tempo Temperatura Precipitação Vento Pressão Humidade
    00:00 +8°C° 0.1 mm 0 m/s 649 mmHg 92%
    01:00 +8°C° 0 mm 0 m/s 649 mmHg 91%
    02:00 +7°C° 0 mm 0 m/s 649 mmHg 91%
    03:00 +7°C° 0 mm 0 m/s 649 mmHg 90%
    04:00 +9°C° 0 mm 1 m/s 649 mmHg 88%
    05:00 +10°C° 0 mm 1 m/s 650 mmHg 86%
    06:00 +11°C° 0 mm 1 m/s 650 mmHg 85%
    07:00 +13°C° 0 mm 1 m/s 651 mmHg 76%
    08:00 +15°C° 0 mm 1 m/s 651 mmHg 67%
    09:00 +18°C° 0 mm 1 m/s 651 mmHg 58%
    10:00 +19°C° 0.1 mm 1 m/s 652 mmHg 53%
    11:00 +21°C° 0.1 mm 1 m/s 652 mmHg 47%
    12:00 +22°C° 0.1 mm 1 m/s 652 mmHg 42%
    13:00 +22°C° 0.1 mm 1 m/s 652 mmHg 43%
    14:00 +22°C° 0.1 mm 1 m/s 652 mmHg 43%
    15:00 +23°C° 0.1 mm 1 m/s 652 mmHg 44%
    16:00 +22°C° 0.1 mm 1 m/s 651 mmHg 51%
    17:00 +20°C° 0.1 mm 1 m/s 651 mmHg 58%
    18:00 +18°C° 0.1 mm 2 m/s 650 mmHg 64%
    19:00 +16°C° 0 mm 1 m/s 650 mmHg 68%
    20:00 +14°C° 0 mm 1 m/s 650 mmHg 71%
    21:00 +11°C° 0 mm 1 m/s 650 mmHg 75%
    22:00 +11°C° 0 mm 1 m/s 649 mmHg 74%
    23:00 +11°C° 0 mm 1 m/s 649 mmHg 74%

    1 Junho, Segunda-feira

    Tempo Temperatura Precipitação Vento Pressão Humidade
    00:00 +9°C° 0 mm 0 m/s 649 mmHg 74%
    01:00 +10°C° 0 mm 1 m/s 648 mmHg 75%
    02:00 +10°C° 0 mm 1 m/s 648 mmHg 76%
    03:00 +10°C° 0 mm 1 m/s 648 mmHg 78%
    04:00 +10°C° 0 mm 1 m/s 648 mmHg 78%
    05:00 +11°C° 0 mm 1 m/s 648 mmHg 78%
    06:00 +12°C° 0 mm 1 m/s 648 mmHg 78%
    07:00 +15°C° 0 mm 1 m/s 648 mmHg 69%
    08:00 +18°C° 0 mm 1 m/s 649 mmHg 59%
    09:00 +21°C° 0 mm 1 m/s 649 mmHg 49%
    10:00 +21°C° 0 mm 2 m/s 650 mmHg 45%
    11:00 +24°C° 0 mm 2 m/s 650 mmHg 41%
    12:00 +25°C° 0 mm 3 m/s 650 mmHg 36%
    13:00 +26°C° 0 mm 2 m/s 650 mmHg 36%
    14:00 +26°C° 0 mm 2 m/s 650 mmHg 36%
    15:00 +26°C° 0 mm 2 m/s 649 mmHg 35%
    16:00 +24°C° 0.2 mm 2 m/s 649 mmHg 48%
    17:00 +23°C° 0.2 mm 1 m/s 648 mmHg 60%
    18:00 +21°C° 0.2 mm 1 m/s 648 mmHg 72%
    19:00 +19°C° 0.2 mm 1 m/s 648 mmHg 74%
    20:00 +16°C° 0.2 mm 1 m/s 647 mmHg 76%
    21:00 +14°C° 0.2 mm 1 m/s 647 mmHg 78%
    22:00 +13°C° 0 mm 1 m/s 647 mmHg 78%
    23:00 +13°C° 0 mm 1 m/s 647 mmHg 77%
    Mostrar mais